User: anonymous   Login
Location: Hilton Head Island
(32.2163°N, 80.7526°W)
Time: 16:57:20
(UTC-05:00)
Language:

A-11 Canister half - Orbit

View from above orbital plane
View from above orbital plane
View from above satellite
View from above satellite

Ground track
Ground track

The orbit is defined by the following mean orbital elements,

1 00051U          26049.43504731 +.00000000 +00000-0 -59714-3 0 00007
2 00051  47.2139  56.8145 0109971 204.6236 154.9276 12.18378277    03
Epoch (UTC): 18 February 2026 10:26:28
Eccentricity: 0.0109971
inclination: 47.2139°
perigee height: 1512 km
apogee height: 1687 km
right ascension of ascending node: 56.8145°
argument of perigee: 204.6236°
revolutions per day: 12.18378277
mean anomaly at epoch: 154.9276°

The dashed part of the orbit path shows where the satellite is in the earth's shadow,  

DLR